Regional Weather Roundup
Issued by NWS

Home | Current Version | Previous Version | Text Only | Print | Product List | Glossary Off
Versions: 1 2 3 4 5 6 7 8 9 10 11 12 13 14 15 16 17 18 19 20 21 22 23 24 25 26 27 28 29 30 31 32 33 34 35 36 37 38 39 40 41 42 43 44 45 46 47 48 49 50

000
ASUS43 KTOP 251559
RWRKS

WEATHER ROUNDUP FOR KANSAS
NATIONAL WEATHER SERVICE GOODLAND KS
1000 AM CST THU DEC 25 2014

NOTE:  "FAIR" INDICATES FEW OR NO CLOUDS BELOW 12,000 FEET WITH NO
SIGNIFICANT WEATHER AND/OR OBSTRUCTIONS TO VISIBILITY.

KSZ001>006-013>018-027>032-041>047-251700-
NORTHWEST KANSAS

CITY           SKY/WX    TMP DP  RH WIND       PRES   REMARKS
GOODLAND       MOSUNNY   35  25  66 W8        29.43R
HAYS           SUNNY     37  19  48 S23       29.49S WCI  26
HILL CITY      SUNNY     36  21  54 S15       29.46F WCI  27
RUSSELL        SUNNY     38  25  59 S20G29    29.48F WCI  28
$$

KSZ061>065-074>080-084>089-251700-
SOUTHWEST KANSAS

CITY           SKY/WX    TMP DP  RH WIND       PRES   REMARKS
DODGE CITY     CLOUDY    41  21  44 S18G25    29.51R
ELKHART          N/A     46  21  37 SW14        N/A
GARDEN CITY    MOSUNNY   39  25  57 SW15      29.49R WCI  31
GREAT BEND     MOSUNNY   37  23  56 S28G33    29.53S WCI  25
LIBERAL        PTSUNNY   43  21  42 S16       29.54S
$$

KSZ066>073-081>083-090>101-251700-
SOUTHEAST KANSAS

CITY           SKY/WX    TMP DP  RH WIND       PRES   REMARKS
CHANUTE        SUNNY     42  30  62 S23G31    29.83S
COFFEYVILLE    SUNNY     45  29  53 S17G30    29.86R
HUTCHINSON     SUNNY     42  26  53 S25G35    29.62S
NEWTON         MOSUNNY   43  25  49 S31G37    29.65F
PARSONS        SUNNY     44  30  57 S12G25    29.85S
WICHITA INTL   MOSUNNY   43  26  51 S24       29.67R
WICHITA JABRA  MOSUNNY   44  24  45 S29G38    29.66S
WINFIELD       MOSUNNY   47  28  47 S24G40    29.73R
$$

KSZ007>012-019>026-033>040-048>060-102>105-251700-
NORTHEAST KANSAS

CITY           SKY/WX    TMP DP  RH WIND       PRES   REMARKS
CONCORDIA      SUNNY     38  27  64 S14       29.58F WCI  30
EMPORIA        SUNNY     37  28  70 S25G32    29.73R WCI  25
LAWRENCE       SUNNY     41  29  62 S14       29.79R
MANHATTAN      SUNNY     42  26  53 S18G29    29.66S
OLATHE IND     SUNNY     38  29  70 S18G28    29.80R WCI  28
OLATHE EXE     SUNNY     38  29  70 S17G24    29.81R WCI  28
SALINA         SUNNY     42  27  55 S20G30    29.59F
TOPEKA BILLARD SUNNY     42  28  57 S16G23    29.76R
TOPEKA FORBES  SUNNY     41  27  57 S20G31    29.74R
$$


USA.gov is the U.S. government's official web portal to all federal, state and local government web resources and services.